Location: Staunton
(38.1490°N, 79.0720°W)
Time: 20:43:52
(UTC-04:00)

ISS - Pass Details

Date: 01 July 2020
Orbit: 417 x 421 km, 51.6° (Epoch: 08 July)

Event Time Altitude Azimuth Distance (km) Brightness Sun altitude
Exits shadow 02:46:24 12° 85° (E) 1,390 -0.8 -25.5°
Drops below altitude 10° 02:46:44 10° 81° (E) 1,490 -0.6 -25.5°
Sets 02:49:11 0° 64° (ENE) 2,357 0.8 -25.3°
